Location: Aula-Vintri
(58.3875°N, 22.4322°E)
Time: 03:04:51
(UTC+00:00)

H-2A R/B - Pass Details

Date: 13 October 2019
Orbit: 734 x 837 km, 98.3° (Epoch: 14 November)

Event Time Altitude Azimuth Distance (km) Brightness Sun altitude
Exits shadow 17:50:10 23° 151° (SSE) 1,653 3.3 -18.8°
Maximum altitude 17:53:31 75° 70° (ENE) 850 2.0 -19.3°
Drops below altitude 10° 17:58:57 10° 345° (NNW) 2,447 5.0 -19.9°
Sets 18:01:20 0° 344° (NNW) 3,393 5.8 -20.2°
